Location: Arpaise
(41.0333°N, 14.7333°E)
Time: 17:08:45
(UTC+00:00)

Meteor 2-17 Rocket - Pass Details

Date: 05 July 2020
Orbit: 935 x 956 km, 82.5° (Epoch: 11 August)

Event Time Altitude Azimuth Distance (km) Brightness Sun altitude
Exits shadow 21:27:25 40° 187° (S) 1,356 4.8 -22.3°
Maximum altitude 21:29:47 89° 269° (W) 945 4.3 -22.5°
Drops below altitude 10° 21:35:53 10° 8° (N) 2,656 7.6 -23.0°
Sets 21:38:22 0° 8° (N) 3,603 8.4 -23.1°
